Wind_Speed
4 4 6 9 11 13 15 17 20 23 23 26 26 27 28 30 34 37 39 43 48 50 49 40 31 24 24 23 18 17 16 16 28 40 53 64 59 58 61 61 53 48 47 46 49
6 5 6 10 11 12 14 16 19 21 23 24 26 28 28 30 33 37 39 43 48 48 43 36 30 24 23 18 16 12 15 17 19 36 45 53 58 58 60 62 64 56 50 49 54
4 5 7 9 11 13 15 16 18 21 23 24 25 27 28 31 32 36 39 42 46 46 42 35 28 25 22 20 13 8 10 20 23 27 35 45 54 60 62 63 65 59 54 52 52
4 7 9 10 12 15 16 17 19 21 23 24 25 26 27 30 34 35 37 40 44 45 43 36 29 24 23 20 17 13 10 14 22 29 31 34 48 58 64 66 66 61 60 56 59
7 9 10 11 14 16 18 20 22 23 24 25 27 28 29 31 33 35 37 39 41 43 43 37 31 28 23 18 19 17 15 15 17 25 34 37 41 57 65 69 64 58 53 60 55
10 12 13 15 17 18 20 22 24 25 26 27 28 29 31 32 33 35 36 38 39 40 40 39 32 28 28 19 17 17 16 18 18 21 26 38 43 55 63 69 62 61 53 57 51
12 14 17 18 20 21 22 22 24 26 27 26 28 30 30 32 32 34 35 36 37 38 39 39 34 30 29 22 16 17 15 14 19 18 23 34 44 55 57 63 62 59 61 49 40
12 14 16 18 19 21 23 23 24 25 26 27 28 28 29 30 32 32 34 35 35 36 37 38 36 32 28 22 15 13 16 11 15 17 18 30 42 51 52 57 63 60 53 48 45
16 16 17 19 20 21 22 23 24 24 26 26 28 29 30 30 30 31 33 34 35 34 34 36 37 35 30 25 18 13 17 17 13 15 19 24 33 44 55 56 58 61 59 51 51
21 22 23 23 24 25 26 27 27 27 29 30 29 31 30 32 31 33 33 34 34 34 32 33 34 34 32 27 22 15 14 17 14 13 17 20 22 38 53 57 59 62 60 54 25
27 28 29 30 31 31 32 32 33 31 30 32 34 34 33 35 33 33 33 33 33 34 33 32 31 32 32 30 25 20 11 13 17 15 14 19 13 34 46 56 60 65 69 64 62
31 33 34 36 37 38 39 39 38 38 32 34 33 33 34 33 33 34 33 32 32 31 30 30 30 30 30 30 27 24 19 12 14 18 13 12 12 26 42 53 58 65 72 68 66
38 39 40 41 42 43 44 44 44 44 43 34 34 35 33 32 34 35 34 34 32 31 30 30 28 29 30 29 27 26 22 18 12 17 18 12 9 19 37 50 57 62 70 68 65
44 45 45 46 47 49 50 50 48 47 48 39 37 34 37 38 37 36 36 36 34 30 31 29 28 27 28 28 26 24 26 22 21 13 16 19 6 14 24 42 48 53 62 68 67
49 50 53 55 56 56 55 53 53 52 56 44 42 41 42 40 39 37 38 37 37 34 30 32 29 28 27 27 25 24 24 23 21 19 12 15 17 12 17 23 32 43 50 59 63
53 58 56 52 49 46 46 45 43 49 53 45 41 40 40 40 38 37 38 37 38 36 33 29 30 29 27 28 27 24 23 23 23 20 14 14 17 15 19 20 26 33 42 52 56
60 61 55 47 45 45 46 46 48 50 45 42 39 39 39 39 37 36 37 37 39 40 34 33 30 29 29 27 27 25 25 21 20 22 17 17 23 11 13 22 27 30 37 45 52
51 46 46 48 49 50 50 51 54 50 46 43 41 44 43 42 41 37 37 36 37 39 40 36 31 30 31 28 27 27 25 25 22 22 19 17 16 14 19 22 29 28 33 40 47
48 49 51 53 55 55 56 58 55 52 49 48 49 50 48 44 43 43 41 38 35 37 39 42 36 32 30 31 31 26 26 25 25 21 20 17 14 17 22 22 25 29 29 32 39
55 56 58 59 59 60 62 61 59 56 55 55 54 53 53 52 50 47 43 41 36 35 39 43 42 35 30 30 33 30 27 26 27 27 21 17 14 14 24 24 23 25 29 30 31
62 62 64 63 63 63 64 64 61 60 62 62 59 57 53 53 53 51 47 45 41 37 39 42 43 41 35 28 35 32 30 28 30 28 26 20 14 20 22 28 30 28 29 32 33
68 68 69 69 69 70 68 64 64 60 60 60 60 60 58 54 54 53 52 49 47 42 42 43 46 46 40 35 34 33 31 32 32 29 27 24 7 18 21 21 28 28 28 30 31
74 76 75 77 76 76 75 73 73 71 64 65 64 62 61 61 61 57 53 51 52 48 43 43 46 45 45 39 35 36 35 36 37 35 26 25 10 24 18 22 27 22 33 32 30
75 77 79 79 79 78 79 77 76 73 72 71 67 67 66 65 63 60 56 55 57 54 47 49 50 50 48 43 42 40 38 39 42 37 31 22 19 18 21 22 21 25 22 28 33
80 81 80 79 80 82 84 84 84 82 80 76 73 71 71 70 68 67 61 58 58 56 53 51 53 52 49 46 46 43 42 43 46 34 44 20 29 13 22 29 23 20 17 19 26
84 85 85 85 87 90 89 88 89 87 87 84 83 77 71 73 72 67 62 60 59 58 56 55 56 56 55 49 49 51 49 49 46 37 43 34 29 24 27 31 17 13 13 9 20
93 96 98 95 96 98 94 92 92 90 88 85 83 80 80 76 71 68 64 61 60 60 61 60 60 60 60 51 51 58 56 47 46 47 45 42 28 36 31 32 24 16 17 18 20
Wind_Direction
210 236 273 280 279 288 297 310 315 315 319 320 318 316 316 318 320 325 333 337 344 354 354 352 343 334 328 317 302 265 253 241 216 212 215 221 217 212 210 214 210 226 226 228 221
223 247 276 285 285 291 299 310 313 316 319 321 321 321 317 321 325 329 335 341 345 355 355 349 347 337 333 327 321 285 243 237 230 218 215 220 218 216 212 215 217 215 222 226 233
248 269 281 283 290 296 304 307 314 318 322 323 326 328 326 325 329 331 337 342 347 355 358 348 347 342 331 325 312 294 228 228 234 226 222 219 218 217 215 216 220 218 220 222 231
277 284 284 293 299 300 303 310 314 318 322 325 327 327 330 329 332 335 336 341 347 353 359 352 344 347 336 324 313 292 257 236 244 246 235 229 216 217 218 218 221 222 224 226 234
287 284 289 299 305 309 310 312 313 315 319 320 322 324 327 329 332 333 337 340 344 351 358 355 347 342 341 318 310 298 275 250 246 247 231 229 224 215 218 225 221 222 225 225 234
297 297 299 301 304 306 307 311 313 313 314 317 318 318 321 325 329 331 335 337 342 350 357 358 350 345 343 329 301 300 291 275 263 260 232 227 223 218 218 227 223 223 226 219 211
305 306 306 306 306 307 308 309 311 312 313 315 318 318 320 324 326 330 332 336 341 347 352 357 353 347 346 336 310 291 291 274 266 270 242 227 218 217 220 227 224 223 227 228 208
305 303 302 303 306 306 307 309 310 311 314 316 317 318 322 325 327 329 332 335 339 344 349 354 355 350 346 345 329 299 278 280 271 256 258 236 211 215 220 227 223 221 226 233 220
306 304 303 302 301 302 304 306 307 309 313 316 319 323 323 325 329 330 332 333 335 341 345 351 353 353 347 345 344 316 293 270 282 264 251 247 218 217 219 224 223 221 220 220 223
300 301 302 302 302 302 303 303 305 308 311 315 317 318 321 325 327 330 332 333 333 337 341 347 350 352 350 343 345 339 302 287 274 277 257 256 226 214 223 224 220 219 217 209 223
295 295 297 297 296 296 297 297 300 302 306 310 313 316 315 318 319 325 327 331 334 335 338 341 344 347 351 345 341 340 326 298 267 274 281 257 231 215 220 228 220 216 221 227 218
292 293 292 292 293 294 294 295 294 294 292 296 299 303 304 308 310 317 322 326 329 331 333 335 338 341 345 350 342 336 335 309 282 265 281 265 229 220 219 227 227 221 227 229 228
294 294 294 294 294 293 293 293 293 291 290 290 295 299 303 302 305 309 313 319 324 326 328 331 334 335 338 345 348 335 332 317 293 272 265 260 243 226 225 223 230 228 229 237 233
295 296 297 298 297 297 297 295 294 294 292 294 295 299 298 299 302 303 306 311 316 322 321 325 327 330 332 335 343 343 335 325 321 300 268 265 221 227 225 226 230 234 235 239 238
294 296 298 296 296 296 295 295 294 293 291 300 299 296 294 294 296 297 300 302 307 313 319 319 323 326 325 327 333 339 342 331 318 315 303 276 269 195 233 233 231 231 231 239 241
294 294 294 294 292 293 294 295 294 290 291 300 301 297 292 290 290 290 291 296 299 303 309 312 315 319 320 321 324 328 335 338 329 318 320 291 279 192 233 241 243 232 229 231 237
288 289 289 291 289 291 293 295 293 291 304 303 299 295 290 291 290 288 286 287 292 296 300 302 307 310 313 313 315 319 321 329 334 324 317 291 280 270 244 241 240 241 233 231 231
288 289 290 289 290 291 291 289 288 297 299 298 293 289 290 294 293 290 287 283 282 288 293 297 299 302 304 307 306 310 312 316 322 329 326 305 286 266 256 251 246 243 243 237 233
287 287 286 286 287 287 287 287 291 292 289 287 285 287 289 289 288 289 287 285 279 279 285 288 292 294 297 301 301 301 302 306 307 315 327 318 297 257 256 259 248 242 249 251 242
287 287 286 287 287 286 285 287 288 288 285 284 284 284 285 285 285 284 285 286 279 275 276 279 283 285 287 294 294 296 295 298 301 307 312 328 328 276 251 251 243 241 242 246 248
287 287 286 285 284 283 283 284 284 282 282 283 283 282 281 281 281 280 279 280 277 272 269 272 275 278 278 283 284 291 290 286 288 298 301 312 331 271 257 245 246 247 243 244 241
293 292 292 290 288 290 289 286 282 282 281 280 281 280 279 276 273 273 276 278 274 267 264 265 268 272 277 272 275 284 286 279 281 285 291 298 319 290 288 271 252 243 248 247 245
294 294 294 293 292 291 289 288 286 285 283 281 279 277 275 273 271 271 273 273 269 265 261 262 262 267 268 268 270 275 280 279 276 275 284 280 305 284 282 286 283 270 247 249 244
292 292 290 290 291 290 288 286 282 281 280 278 276 274 273 271 270 270 269 266 265 261 253 253 255 258 263 271 271 268 270 275 275 273 278 283 268 282 288 283 276 279 279 260 248
297 294 292 291 289 287 285 284 283 281 278 275 273 273 271 270 270 269 266 261 259 257 252 250 253 256 258 263 267 267 265 266 269 274 271 264 266 259 269 279 283 283 287 267 253
293 290 287 287 285 282 280 279 279 277 276 275 272 270 265 269 268 265 257 253 251 248 245 247 249 250 252 254 261 265 260 259 265 270 268 270 263 264 253 262 273 272 270 256 248
294 292 290 288 285 282 279 276 274 272 271 270 268 266 267 267 263 261 253 248 244 242 242 242 246 248 250 252 257 256 259 260 261 262 270 266 262 261 257 260 259 264 259 253 246
Height
5831 5831 5831 5831 5831 5830 5828 5826 5824 5821 5819 5816 5813 5810 5806 5803 5798 5793 5786 5779 5769 5756 5745 5734 5725 5720 5716 5710 5708 5708 5710 5711 5711 5718 5723 5731 5748 5757 5763 5771 5779 5787 5797 5802 5803
5829 5829 5828 5828 5827 5826 5824 5822 5820 5818 5815 5812 5809 5806 5802 5798 5793 5787 5781 5773 5764 5753 5742 5732 5724 5719 5714 5711 5707 5706 5707 5710 5711 5715 5721 5730 5744 5751 5759 5764 5770 5780 5787 5793 5797
5828 5827 5826 5825 5824 5823 5821 5819 5817 5814 5812 5809 5806 5802 5797 5793 5789 5782 5776 5769 5760 5750 5740 5731 5723 5717 5713 5710 5708 5706 5705 5706 5709 5713 5718 5725 5736 5745 5751 5757 5762 5774 5782 5787 5786
5826 5826 5825 5823 5821 5820 5817 5815 5813 5810 5807 5804 5802 5798 5794 5789 5785 5778 5772 5765 5757 5748 5738 5730 5722 5715 5712 5710 5708 5706 5704 5704 5705 5710 5717 5721 5729 5737 5745 5749 5755 5766 5774 5778 5781
5824 5823 5821 5820 5818 5817 5814 5812 5809 5806 5803 5800 5797 5793 5789 5785 5780 5774 5767 5760 5754 5746 5736 5728 5721 5714 5709 5707 5706 5704 5703 5702 5703 5705 5710 5714 5722 5727 5736 5737 5746 5761 5768 5770 5768
5822 5821 5819 5817 5815 5813 5811 5808 5805 5802 5799 5796 5792 5789 5785 5781 5775 5770 5763 5758 5751 5743 5734 5727 5720 5713 5707 5703 5703 5702 5701 5700 5700 5699 5701 5706 5713 5717 5727 5728 5741 5752 5758 5762 5762
5820 5818 5816 5814 5812 5809 5807 5804 5801 5798 5795 5792 5787 5783 5780 5777 5771 5766 5761 5754 5748 5741 5733 5725 5718 5712 5706 5700 5698 5698 5699 5697 5695 5695 5695 5694 5702 5710 5718 5721 5736 5743 5749 5754 5758
5816 5814 5812 5810 5808 5805 5802 5800 5797 5793 5791 5787 5783 5780 5775 5771 5767 5762 5757 5751 5745 5739 5732 5725 5717 5711 5705 5699 5695 5694 5695 5694 5692 5690 5689 5689 5700 5705 5709 5714 5727 5735 5742 5747 5755
5813 5811 5808 5806 5803 5800 5798 5796 5792 5789 5785 5783 5780 5776 5772 5767 5763 5759 5754 5749 5743 5737 5730 5723 5716 5710 5704 5698 5693 5691 5691 5691 5689 5686 5685 5684 5694 5699 5699 5706 5718 5727 5734 5741 5748
5810 5807 5805 5802 5799 5796 5793 5791 5787 5785 5781 5777 5775 5772 5767 5764 5759 5754 5750 5745 5740 5734 5729 5722 5715 5709 5703 5697 5691 5687 5686 5686 5686 5685 5682 5682 5689 5695 5695 5696 5707 5718 5723 5729 5729
5804 5801 5799 5796 5793 5790 5788 5785 5783 5781 5777 5773 5769 5766 5762 5758 5754 5750 5745 5741 5736 5731 5725 5720 5715 5708 5701 5695 5690 5685 5683 5682 5682 5681 5681 5680 5683 5687 5687 5689 5700 5710 5714 5719 5723
5797 5795 5792 5789 5786 5783 5780 5777 5774 5771 5772 5766 5763 5759 5756 5752 5748 5744 5741 5738 5733 5727 5722 5719 5713 5707 5700 5693 5688 5684 5681 5679 5679 5677 5678 5678 5680 5681 5684 5685 5693 5703 5704 5711 5718
5790 5787 5784 5781 5777 5774 5771 5769 5765 5762 5759 5763 5759 5755 5750 5747 5743 5738 5736 5731 5728 5724 5720 5714 5711 5705 5699 5693 5687 5682 5679 5675 5675 5673 5674 5675 5677 5678 5678 5680 5683 5694 5699 5702 5713
5782 5779 5776 5772 5770 5765 5761 5758 5755 5751 5747 5753 5751 5748 5744 5739 5737 5733 5728 5726 5722 5719 5715 5712 5707 5702 5698 5693 5687 5681 5677 5673 5670 5671 5669 5670 5674 5674 5674 5677 5681 5688 5696 5699 5707
5771 5767 5765 5762 5758 5753 5749 5745 5742 5741 5733 5741 5740 5737 5733 5732 5728 5727 5722 5719 5715 5713 5712 5706 5702 5699 5695 5691 5686 5682 5676 5672 5668 5667 5666 5666 5667 5673 5671 5672 5671 5676 5684 5688 5695
5761 5756 5752 5749 5745 5741 5738 5734 5731 5729 5722 5729 5727 5723 5720 5718 5717 5715 5713 5711 5708 5705 5704 5702 5698 5694 5691 5687 5684 5680 5675 5670 5667 5664 5664 5662 5663 5669 5667 5668 5667 5668 5672 5678 5683
5748 5744 5739 5738 5734 5731 5728 5725 5721 5716 5721 5719 5716 5713 5708 5707 5706 5704 5703 5703 5700 5697 5698 5696 5693 5690 5686 5683 5680 5678 5674 5669 5667 5662 5660 5658 5657 5663 5663 5661 5660 5662 5664 5670 5676
5736 5733 5730 5725 5723 5720 5717 5714 5709 5711 5709 5707 5705 5700 5698 5699 5697 5695 5693 5693 5692 5689 5686 5685 5687 5685 5682 5678 5676 5673 5671 5667 5661 5659 5657 5654 5653 5656 5654 5655 5655 5657 5658 5661 5666
5725 5722 5718 5714 5710 5706 5703 5698 5700 5698 5696 5692 5690 5687 5687 5687 5685 5683 5683 5683 5683 5682 5680 5675 5677 5677 5676 5673 5671 5669 5666 5664 5660 5655 5652 5652 5650 5650 5648 5649 5649 5651 5653 5654 5657
5713 5709 5703 5701 5697 5692 5687 5686 5683 5683 5679 5676 5675 5674 5673 5672 5670 5669 5671 5673 5673 5673 5670 5666 5665 5668 5669 5667 5664 5662 5661 5658 5655 5651 5647 5646 5645 5644 5642 5642 5643 5644 5646 5648 5648
5696 5692 5686 5683 5680 5676 5673 5672 5669 5667 5661 5659 5659 5657 5659 5658 5656 5656 5658 5659 5659 5660 5658 5656 5655 5656 5658 5661 5655 5656 5654 5651 5648 5648 5643 5641 5641 5634 5635 5636 5637 5639 5638 5639 5642
5676 5672 5667 5663 5660 5655 5655 5653 5651 5650 5645 5641 5640 5640 5640 5640 5638 5640 5643 5646 5644 5645 5645 5643 5640 5641 5647 5648 5648 5647 5646 5643 5640 5641 5640 5637 5638 5631 5629 5630 5631 5632 5634 5634 5636
5658 5654 5649 5644 5639 5635 5632 5632 5626 5628 5626 5621 5621 5621 5622 5622 5618 5623 5627 5633 5627 5629 5630 5631 5628 5628 5630 5637 5638 5637 5637 5634 5632 5631 5634 5632 5635 5625 5626 5624 5623 5625 5627 5628 5629
5637 5632 5628 5623 5617 5612 5607 5611 5605 5605 5603 5597 5599 5597 5599 5601 5604 5607 5610 5612 5610 5612 5614 5613 5614 5615 5619 5623 5624 5626 5627 5624 5621 5623 5624 5627 5625 5623 5620 5618 5616 5616 5618 5620 5622
5613 5607 5602 5600 5594 5586 5579 5578 5578 5576 5575 5575 5576 5575 5574 5576 5585 5585 5588 5590 5592 5595 5595 5596 5597 5601 5606 5609 5608 5611 5614 5614 5610 5619 5608 5623 5615 5622 5615 5611 5611 5611 5611 5612 5615
5588 5580 5576 5573 5565 5557 5553 5551 5548 5550 5543 5550 5543 5550 5549 5553 5558 5565 5563 5567 5570 5574 5575 5578 5581 5584 5587 5594 5594 5594 5598 5599 5603 5607 5600 5607 5609 5610 5609 5606 5606 5606 5605 5604 5607
5554 5545 5534 5541 5533 5521 5516 5515 5516 5512 5521 5514 5515 5516 5528 5532 5529 5536 5538 5545 5549 5551 5557 5560 5565 5567 5570 5579 5579 5575 5581 5591 5593 5593 5593 5591 5601 5597 5600 5598 5598 5600 5600 5598 5598